カタログに戻る

MEASAT 3B

運用中通信GEO
NORAD 40147·PAYLOAD·🇲🇾 Malaysia

打ち上げ Sep 11, 2014 から Guiana Space Centre

Loading…

TLE

最新Source: Space-Track

元期: Sep 14, 2026, 21:04 UTC

1 40147U 14054B   26257.87840721 -.00000249  00000-0  00000-0 0  9995
2 40147   0.0389  36.5369 0001307  74.6317 290.4422  1.00271576 43817

AllMySatでMEASAT 3Bをリアルタイム追跡

Download on the App Store